Regional Weather Roundup
Issued by NWS Lake Charles, LA

Home | Current Version | Previous Version | Text Only | Print | Product List | Glossary On
Versions: 1 2 3 4 5 6 7 8 9 10 11 12 13 14 15 16 17 18 19 20 21 22 23 24 25 26 27 28 29 30 31 32 33 34 35 36 37 38 39 40 41 42 43 44 45 46 47 48 49
000
ASUS44 KLCH 200810
RWRLCH
RWRLCH
REGIONAL WEATHER ROUNDUP
NATIONAL WEATHER SERVICE LAKE CHARLES LA
300 AM CDT SAT SEP 20 2014

Note: "fair" indicates few or no clouds below 12,000 feet with no
significant weather and/or obstructions to visibility.


ACROSS SOUTHEAST TEXAS

CITY           SKY/WX    TMP DP  RH WIND       PRES   REMARKS
BEAUMONT       CLEAR     76  71  85 E7        29.92S
BEAUMONT CITY    N/A     73  71  96 CALM      29.93F
ORANGE           N/A    N/A N/A N/A CALM      29.94S FOG
JASPER         CLEAR     68  67  97 CALM      29.98S
$$

ACROSS CENTRAL LOUISIANA

CITY           SKY/WX    TMP DP  RH WIND       PRES   REMARKS
LEESVILLE      CLEAR     71  69  93 CALM      29.95S
FULLERTON        N/A     71  68  90 CALM      29.93S FOG
ALEXANDRIA INT CLEAR     69  68  96 CALM      29.94S FOG
ESLER FIELD    CLEAR     69  67  93 CALM      29.96S FOG
DERIDDER         N/A     69  68  96 CALM      29.97S FOG
OAKDALE        SUNNY     67  66  96 CALM      29.95S FOG
OPELOUSAS        N/A     70  69  95 CALM      29.93S
$$

ACROSS SOUTHWEST AND SOUTH CENTRAL LOUISIANA

CITY           SKY/WX    TMP DP  RH WIND       PRES   REMARKS
SULPHUR        SUNNY     74  72  95 E3        29.94S
LAKE CHARLES   CLEAR     72  70  93 CALM      29.93S
CHENNAULT INT  CLEAR     72  70  93 CALM      29.94R
CAMERON PHI      N/A     73  72  94 NE6       29.95S
DEQUINCY         N/A     68  67  98 CALM      29.94S
JENNINGS         N/A     71  69  95 CALM      29.93S
LAFAYETTE      CLEAR     72  70  93 CALM      29.93S
NEW IBERIA     CLEAR     74  70  87 E5        29.93S
ABBEVILLE        N/A     68  68 100 CALM      29.92S
PATTERSON      CLEAR     72  70  94 NE7       29.94S
SALT POINT       N/A     75  71  87 CALM      29.90F
$$

SELECTED SITES ACROSS THE REGION

CITY           SKY/WX    TMP DP  RH WIND       PRES   REMARKS
HOUSTON BUSH   PTCLDY    74  73  97 CALM      29.92S
HOUSTON HOBBY  MOCLDY    76  74  93 CALM      29.91R
GALVESTON      CLEAR     81  72  74 E12       29.91S
COLLEGE STAT   MOCLDY    74  72  93 NE5       29.95R
CONROE         MOCLDY    71  70  96 CALM      29.95R
HUNTSVILLE     CLEAR     71  69  93 CALM      29.95S
LUFKIN         CLEAR     73  69  87 CALM      29.95F
SHREVEPORT     CLEAR     72  68  87 CALM      29.96S
MONROE         CLEAR     69  67  93 CALM      29.97S FOG
NATCHEZ MS     CLEAR     70  66  88 CALM      29.97S
BATON ROUGE    CLEAR     70  68  93 NE5       29.94S
N.O. INTL ARPT PTCLDY    78  68  71 E5        29.92S
SLIDELL        CLEAR     70  67  90 N5        29.93F
$$

MARINE REPORTS

STATION/POSITION TIME  TEMP    WIND        PRES    VSBY  WAVE
                       AIR SEA DIR/SP/G                  HT/PER
                 (UTC) (F)     (DEG/KT/KT) (MB)    (MI)  (FT/S)
BUOY 30 S HIGH I 0800   82 83  100/ 12/ 14 1012.0R         4/ 5
SEA RIM ST PARK  0800   74      50/  6/  7 1013.5S
PORT ARTHUR      0800      83  100/  5/ 10 1013.3S
SABINE PASS N    0800   76 81   60/  5/  6 1013.2S
TEXAS POINT      0800   80 81   90/ 16/ 18 1013.2R
CALCASIEU PASS   0800   74 81   70/  5/  6 1014.3S
LK CHARLES BEACH 0800   74 84              1013.6S
MARSH ISLAND     NOT AVBL
FRESH WATER LOCK 0800   75 82   40/  6/  8 1012.9R
AMERADA PASS     0800   74 82   60/  4/  7 1012.5F
$$


USA.gov is the U.S. government's official web portal to all federal, state and local government web resources and services.